Regional Weather Roundup
Issued by NWS San Diego, CA

Home | Current Version | Previous Version | Text Only | Print | Product List | Glossary On
Versions: 1 2 3 4 5 6 7 8 9 10 11 12 13 14 15 16 17 18 19 20 21 22 23 24 25 26 27 28 29 30 31 32 33 34 35 36 37 38 39 40 41 42 43 44 45 46 47 48 49 50
000
ASUS46 KSGX 270511
RWRSGX

SAN DIEGO HOURLY WEATHER ROUNDUP
NATIONAL WEATHER SERVICE SAN DIEGO CA
1000 PM PDT THU MAR 26 2015

NOTE: "FAIR" INDICATES FEW OR NO CLOUDS BELOW 12,000 FEET WITH NO
SIGNIFICANT WEATHER AND/OR OBSTRUCTIONS TO VISIBILITY.

CAZ042-043-060-061-PZZ750-775-270600-

GREATER SAN DIEGO AREA

CITY           SKY/WX    TMP DP  RH WIND       PRES   REMARKS
LINDBERGH FLD  CLEAR     72  47  40 N5        30.05R
POINT LOMA       N/A     70  40  33 NW18        N/A
CHULA VISTA      N/A     68  56  65 CALM      29.98R
IMPERIAL BEACH CLEAR     60  50  69 E3        30.05R
BROWN FIELD    CLEAR     68  49  50 SW3       30.05R
MIRAMAR MCAS   CLEAR     68  43  40 NW8       30.05R
MONTGOMERY FLD CLEAR     71  45  39 NW7       30.05R

$$

NORTH SAN DIEGO COUNTY

CITY           SKY/WX    TMP DP  RH WIND       PRES   REMARKS
CAMP PENDLETON CLEAR     62  52  69 CALM      30.04R
OCEANSIDE AP   CLEAR     60  54  80 CALM      30.03R
VISTA            N/A     65  46  51 CALM      30.03R
CARLSBAD       CLEAR     69  54  58 W5        30.04R
FALLBROOK        N/A     70  40  33 CALM      30.04R
SAN MARCOS       N/A     73  42  33 CALM      30.02R
POWAY            N/A     65  43  44 CALM      30.05R

$$

EAST SAN DIEGO COUNTY

CITY           SKY/WX    TMP DP  RH WIND       PRES   REMARKS
RAMONA           N/A     58  36  43 E3        30.09R
SANTEE LAKES     N/A     66  41  40 CALM      30.05R
LA MESA          N/A     73  41  32 CALM      29.98R
DESCANSO N       N/A     63  27  26 CALM      29.98R
MT. LAGUNA OBS   N/A     56  18  22 E10       29.85R
CAMPO            N/A     52  25  35 NE8       30.13R

$$

ORANGE COUNTY AND THE LOS ANGELES BASIN

CITY           SKY/WX    TMP DP  RH WIND       PRES   REMARKS
JOHN WAYNE AP  CLEAR     70  49  47 CALM      30.03R
LAKE FOREST FR   N/A     72  32  23 CALM      29.92R
SANTA ANA        N/A     70  47  43 CALM      29.98S
HUNTINGTON BCH   N/A     66  61  84 CALM      30.05R
LOS ALAMITOS   CLEAR     67  47  47 S3        30.03R
FULLERTON      CLEAR     74  38  27 CALM      30.02R
LONG BEACH     CLEAR     72  49  44 CALM      30.03R
L.A. AP        CLEAR     67  53  61 W5        30.03S
L.A. DOWNTOWN  CLEAR     73  47  39 CALM      30.02S

$$

THE INLAND EMPIRE

CITY           SKY/WX    TMP DP  RH WIND       PRES   REMARKS
CORONA         CLEAR     65  37  35 CALM      30.06R
CHINO          CLEAR     71  40  32 SW3       30.06S
ONTARIO        CLEAR     75  32  20 SW5       30.06R
RIVERSIDE AP   CLEAR     75  36  24 E3        30.07R
MARCH ARB      CLEAR     64  35  33 CALM      30.10R
HORSETHIEF CYN   N/A     68  33  27 SW5       30.03R
HEMET EAST       N/A     70  24  18 CALM      30.09R
FRENCH VALLEY  FAIR      68  39  34 E3        30.09R
TEMECULA         N/A     73  39  28 NE2       30.04R

$$

SAN BERNARDINO AND RIVERSIDE COUNTY MOUNTAINS

CITY           SKY/WX    TMP DP  RH WIND       PRES   REMARKS
BIG BEAR AP    CLEAR     37  21  52 CALM      30.38R

$$

SOUTHERN DESERT INCLUDING THE COACHELLA VALLEY

CITY           SKY/WX    TMP DP  RH WIND       PRES   REMARKS
PALM SPRINGS   CLEAR     79  26  14 N6        30.06R
THOUSAND PALMS   N/A     78  30  17 CALM      30.03R
THERMAL        CLEAR     68  41  37 NW5       30.00R
BLYTHE         CLEAR     69  30  23 N7        30.04R
IMPERIAL AP    CLEAR     72  37  28 CALM      30.01R
EL CENTRO NAS  CLEAR     71  32  23 W6        30.02R
YUMA AZ        PTCLDY    78  27  15 N5        30.03R
MEXICALI       CLEAR     73  27  17 CALM      30.03R

$$

UPPER DESERT

CITY           SKY/WX    TMP DP  RH WIND       PRES   REMARKS
VICTORVILLE AP CLEAR     61  21  21 SW6       30.18S
HESPERIA         N/A     63  28  27 W3        30.25R
APPLE VALLEY     N/A     60  35  38 CALM      30.20R
PALMDALE       CLEAR     61  30  31 SW8       30.17R
LANCASTER      CLEAR     55  27  34 W7        30.16R
EDWARDS AFB    CLEAR     66  24  20 CALM      30.13R
DAGGETT        CLEAR     66  25  21 W5        30.13R
29 PALMS N     CLEAR     69  23  17 CALM      30.20R
NEEDLES        CLEAR     75  20  12 NW9       30.08R

$$

REGIONAL REPORTS

CITY           SKY/WX    TMP DP  RH WIND       PRES   REMARKS
SANTA BARBARA  CLEAR     62  57  83 SE5       30.03R
SANDBERG       CLEAR     66  27  23 N5        30.27R
MT. WILSON       N/A     61  27  27 MISG        N/A
LAS VEGAS NV   CLEAR     69  28  21 W7        30.12S
PHOENIX AZ     CLEAR     80  24  12 W6        30.04R
TIJUANA        CLEAR     66  48  52 W5        30.08R
ENSENADA NW      N/A     65  32  29 NE2       30.03R

$$

OFFSHORE ISLANDS

CITY           SKY/WX    TMP DP  RH WIND       PRES   REMARKS
CATALINA ARPT  CLEAR     73  28  18 NW12      30.12R
SAN NICOLAS IS CLEAR    N/A N/A N/A W12       30.06R

$$

MARINE AND OFFSHORE BUOY REPORTS

STATION/POSITION SKY/WX   TEMP    WIND        PRES    SWELL
                          AIR SEA DIR/SP/G            HT/PER/DIR
                          (F)     (DEG/KT/KT) (MB)    (FT/S/D)
TANNER BANKS               62 62  290/  8/  8 1017.5R   5/300/11
S CLEMENTE BASIN           66 65  320/  8/ 10 1017.0R   5/220/17
SAN NICOLAS IS.               60                N/A     3/290/12
SO. S. ROSA ISLA           61 61  330/ 10/ 12 1016.9R   5/11
W. S. BARBARA CH           62 60  330/ 14/ 16 1017.0R   5/290/11
S. MONICA BASIN            65 63  350/  8/  8 1017.3R   3/160/16
S PEDRO CHANNEL               64                N/A     2/170/15
DANA POINT                    66                N/A     2/210/18
CMP PENDLETON NS              66                N/A     2/220/17
OCEANSIDE OFFSHR              66                N/A     2/220/17
TORREY PINES OTR              67                N/A     2/220/17
MISSION BAY BUOY              67                N/A     2/210/17
SAN DIEGO BAY                                 1017.1R
POINT LOMA SOUTH              65                N/A     3/210/17

$$




USA.gov is the U.S. government's official web portal to all federal, state and local government web resources and services.